Regional Weather Roundup
Issued by NWS Cleveland, OH

Home | Current Version | Previous Version | Graphics & Text | Print | Product List | Glossary On
Versions: 1 2 3 4 5 6 7 8 9 10 11 12 13 14 15 16 17 18 19 20 21 22 23 24 25 26 27 28 29 30 31 32 33 34 35 36 37 38 39 40 41 42 43 44 45 46 47 48 49 50
000
ASUS41 KCLE 080210
RWRCLE
OHIO REGIONAL WEATHER ROUNDUP
NATIONAL WEATHER SERVICE CLEVELAND, OH
1000 PM EDT TUE JUL 07 2015

NOTE: "FAIR" INDICATES FEW OR NO CLOUDS BELOW 12,000 FEET WITH NO
SIGNIFICANT WEATHER AND/OR OBSTRUCTIONS TO VISIBILITY.

OHZ001>008-015>018-024>027-034-035-043-044-080300-
   NORTHWEST OHIO

CITY           SKY/WX    TMP DP  RH WIND       PRES   REMARKS
DEFIANCE       CLOUDY    67  59  75 NE10      30.00R
FINDLAY        LGT RAIN  65  63  93 N13       29.98R FOG
TOLEDO EXPRESS CLOUDY    64  59  83 N10       30.00R
TOLEDO EXEC    CLOUDY    63  61  93 N10       30.00R
LIMA           LGT RAIN  64  62  93 N14       29.99R
$$

OHZ009>014-019>023-028>033-038-089-080300-
   NORTHEAST OHIO

CITY           SKY/WX    TMP DP  RH WIND       PRES   REMARKS
CLE-HOPKINS    CLOUDY    64  61  90 N12       30.00R
CLE-LAKEFRONT  CLOUDY    65  61  87 N17       29.98R
CUY CO. ARPT   CLOUDY    64  63  94 N12       29.99R
LORAIN-ELYRIA  CLOUDY    63  63 100 NE12      29.99R FOG
ASHTABULA      CLOUDY    63  63 100 N8        29.97R
AKRON-CANTON   CLOUDY    71  68  90 SW3       29.96S
WOOSTER        LGT RAIN  70  69  97 CALM      29.97R
MANSFIELD      LGT RAIN  68  68 100 N10       29.97R
YOUNGSTOWN     CLOUDY    69  68  96 S7        29.97R
$$

OHZ042-051>053-060>062-070>072-077>081-080300-
  SOUTHWEST OHIO

CITY           SKY/WX    TMP DP  RH WIND       PRES   REMARKS
CINC-COVINGTON LGT RAIN  72  70  94 SW8       30.00R FOG
CINC-LUNKEN    CLOUDY    73  71  93 SW7       29.98R
HAMILTON       CLOUDY    71  70  96 W7        29.99R FOG
DAYTON         LGT RAIN  69  67  93 NW16      29.98R FOG
WRIGHT-PAT AFB LGT RAIN  72  72 100 N6        29.94R FOG
DAYTON GENERAL CLOUDY    72  70  93 W9G18     29.95R
WILMINGTON     RAIN      72  69  90 SW18      29.95S FOG
$$

OHZ036-037-039>041-045>050-054>059-063>069-073>076-082>088-080300-
  CENTRAL AND SOUTHEAST OHIO

CITY           SKY/WX    TMP DP  RH WIND       PRES   REMARKS
COLUMBUS       CLOUDY    73  72  94 SW6       29.95S
OSU AIRPORT    LGT RAIN  73  70  90 SW6       29.95S
BOLTON FIELD   CLOUDY    72  71  98 CALM      29.96S
RICKENBACK AFB DRIZZLE   72  70  93 SW6       29.95S
NEWARK         CLOUDY    73  71  93 S6        29.96R
MARION         LGT RAIN  68  66  93 N13       29.96R FOG
LANCASTER      CLOUDY    75  69  81 W7        29.97R
ZANESVILLE     NOT AVBL
NEW PHILLY     RAIN      72  71  97 CALM      29.96S FOG
$$



USA.gov is the U.S. government's official web portal to all federal, state and local government web resources and services.